Year,Month,Day,Hour,Minute,Value (Times are PST for temperature in C)
2018,09,17,00,00,10.70
2018,09,17,00,01,10.70
2018,09,17,00,02,10.70
2018,09,17,00,03,10.70
2018,09,17,00,04,10.70
2018,09,17,00,05,10.70
2018,09,17,00,06,10.80
2018,09,17,00,07,10.80
2018,09,17,00,08,10.80
2018,09,17,00,09,10.80
2018,09,17,00,10,10.80
2018,09,17,00,11,10.80
2018,09,17,00,12,10.80
2018,09,17,00,13,10.90
2018,09,17,00,14,10.90
2018,09,17,00,15,10.90
2018,09,17,00,16,10.90
2018,09,17,00,17,10.90
2018,09,17,00,18,10.90
2018,09,17,00,19,10.90
2018,09,17,00,20,10.90
2018,09,17,00,21,10.90
2018,09,17,00,22,10.90
2018,09,17,00,23,10.90
2018,09,17,00,24,10.80
2018,09,17,00,25,10.80
2018,09,17,00,26,10.80
2018,09,17,00,27,10.80
2018,09,17,00,28,10.80
2018,09,17,00,29,10.80
2018,09,17,00,30,10.70
2018,09,17,00,31,10.70
2018,09,17,00,32,10.70
2018,09,17,00,33,10.60
2018,09,17,00,34,10.60
2018,09,17,00,35,10.60
2018,09,17,00,36,10.50
2018,09,17,00,37,10.40
2018,09,17,00,38,10.40
2018,09,17,00,39,10.40
2018,09,17,00,40,10.30
2018,09,17,00,41,10.30
2018,09,17,00,42,10.30
2018,09,17,00,43,10.30
2018,09,17,00,44,10.30
2018,09,17,00,45,10.30
2018,09,17,00,46,10.30
2018,09,17,00,47,10.30
2018,09,17,00,48,10.40
2018,09,17,00,49,10.40
2018,09,17,00,50,10.50
2018,09,17,00,51,10.50
2018,09,17,00,52,10.60
2018,09,17,00,53,10.60
2018,09,17,00,54,10.60
2018,09,17,00,55,10.70
2018,09,17,00,56,10.70
2018,09,17,00,57,10.70
2018,09,17,00,58,10.70
2018,09,17,00,59,10.70
2018,09,17,01,00,10.80
2018,09,17,01,01,10.80
2018,09,17,01,02,10.80
2018,09,17,01,03,10.80
2018,09,17,01,04,10.80
2018,09,17,01,05,10.80
2018,09,17,01,06,10.80
2018,09,17,01,07,10.80
2018,09,17,01,08,10.80
2018,09,17,01,09,10.80
2018,09,17,01,10,10.90
2018,09,17,01,11,10.90
2018,09,17,01,12,10.90
2018,09,17,01,13,10.90
2018,09,17,01,14,10.90
2018,09,17,01,15,10.90
2018,09,17,01,16,11.00
2018,09,17,01,17,11.00
2018,09,17,01,18,11.00
2018,09,17,01,19,11.00
2018,09,17,01,20,11.00
2018,09,17,01,21,11.00
2018,09,17,01,22,11.00
2018,09,17,01,23,11.00
2018,09,17,01,24,11.00
2018,09,17,01,25,11.00
2018,09,17,01,26,11.00
2018,09,17,01,27,11.00
2018,09,17,01,28,11.00
2018,09,17,01,29,10.90
2018,09,17,01,30,10.90
2018,09,17,01,31,10.90
2018,09,17,01,32,10.90
2018,09,17,01,33,10.90
2018,09,17,01,34,10.90
2018,09,17,01,35,10.90
2018,09,17,01,36,10.90
2018,09,17,01,37,10.90
2018,09,17,01,38,11.00
2018,09,17,01,39,11.00
2018,09,17,01,40,11.00
2018,09,17,01,41,11.00
2018,09,17,01,42,11.00
2018,09,17,01,43,11.00
2018,09,17,01,44,11.00
2018,09,17,01,45,11.00
2018,09,17,01,46,11.00
2018,09,17,01,47,11.00
2018,09,17,01,48,11.00
2018,09,17,01,49,11.00
2018,09,17,01,50,11.00
2018,09,17,01,51,11.00
2018,09,17,01,52,11.00
2018,09,17,01,53,10.90
2018,09,17,01,54,10.90
2018,09,17,01,55,10.90
2018,09,17,01,56,10.90
2018,09,17,01,57,10.90
2018,09,17,01,58,10.90
2018,09,17,01,59,10.90
2018,09,17,02,00,10.80
2018,09,17,02,01,10.80
2018,09,17,02,02,10.80
2018,09,17,02,03,10.80
2018,09,17,02,04,10.80
2018,09,17,02,05,10.70
2018,09,17,02,06,10.70
2018,09,17,02,07,10.70
2018,09,17,02,08,10.60
2018,09,17,02,09,10.60
2018,09,17,02,10,10.50
2018,09,17,02,11,10.50
2018,09,17,02,12,10.40
2018,09,17,02,13,10.30
2018,09,17,02,14,10.30
2018,09,17,02,15,10.30
2018,09,17,02,16,10.20
2018,09,17,02,17,10.20
2018,09,17,02,18,10.10
2018,09,17,02,19,10.10
2018,09,17,02,20,10.10
2018,09,17,02,21,10.10
2018,09,17,02,22,10.10
2018,09,17,02,23,10.00
2018,09,17,02,24,10.00
2018,09,17,02,25,10.00
2018,09,17,02,26,10.00
2018,09,17,02,27,10.00
2018,09,17,02,28,10.00
2018,09,17,02,29,10.00
2018,09,17,02,30,9.90
2018,09,17,02,31,9.90
2018,09,17,02,32,9.90
2018,09,17,02,33,9.90
2018,09,17,02,34,9.80
2018,09,17,02,35,9.80
2018,09,17,02,36,9.80
2018,09,17,02,37,9.80
2018,09,17,02,38,9.80
2018,09,17,02,39,9.80
2018,09,17,02,40,9.80
2018,09,17,02,41,9.80
2018,09,17,02,42,9.80
2018,09,17,02,43,9.80
2018,09,17,02,44,9.90
2018,09,17,02,45,9.90
2018,09,17,02,46,9.80
2018,09,17,02,47,9.80
2018,09,17,02,48,9.80
2018,09,17,02,49,9.90
2018,09,17,02,50,9.90
2018,09,17,02,51,10.00
2018,09,17,02,52,10.10
2018,09,17,02,53,10.10
2018,09,17,02,54,10.20
2018,09,17,02,55,10.20
2018,09,17,02,56,10.20
2018,09,17,02,57,10.30
2018,09,17,02,58,10.30
2018,09,17,02,59,10.30
2018,09,17,03,00,10.40
2018,09,17,03,01,10.40
2018,09,17,03,02,10.40
2018,09,17,03,03,10.40
2018,09,17,03,04,10.30
2018,09,17,03,05,10.30
2018,09,17,03,06,10.30
2018,09,17,03,07,10.30
2018,09,17,03,08,10.30
2018,09,17,03,09,10.30
2018,09,17,03,10,10.30
2018,09,17,03,11,10.30
2018,09,17,03,12,10.30
2018,09,17,03,13,10.30
2018,09,17,03,14,10.30
2018,09,17,03,15,10.30
2018,09,17,03,16,10.30
2018,09,17,03,17,10.30
2018,09,17,03,18,10.30
2018,09,17,03,19,10.30
2018,09,17,03,20,10.30
2018,09,17,03,21,10.30
2018,09,17,03,22,10.30
2018,09,17,03,23,10.30
2018,09,17,03,24,10.30
2018,09,17,03,25,10.30
2018,09,17,03,26,10.30
2018,09,17,03,27,10.30
2018,09,17,03,28,10.20
2018,09,17,03,29,10.20
2018,09,17,03,30,10.20
2018,09,17,03,31,10.20
2018,09,17,03,32,10.10
2018,09,17,03,33,10.10
2018,09,17,03,34,10.10
2018,09,17,03,35,10.10
2018,09,17,03,36,10.10
2018,09,17,03,37,10.10
2018,09,17,03,38,10.00
2018,09,17,03,39,10.00
2018,09,17,03,40,10.00
2018,09,17,03,41,10.00
2018,09,17,03,42,10.00
2018,09,17,03,43,9.90
2018,09,17,03,44,9.90
2018,09,17,03,45,9.90
2018,09,17,03,46,9.90
2018,09,17,03,47,9.90
2018,09,17,03,48,9.90
2018,09,17,03,49,9.80
2018,09,17,03,50,9.80
2018,09,17,03,51,9.80
2018,09,17,03,52,9.80
2018,09,17,03,53,9.80
2018,09,17,03,54,9.80
2018,09,17,03,55,9.70
2018,09,17,03,56,9.70
2018,09,17,03,57,9.70
2018,09,17,03,58,9.70
2018,09,17,03,59,9.60
2018,09,17,04,00,9.60
2018,09,17,04,01,9.60
2018,09,17,04,02,9.60
2018,09,17,04,03,9.60
2018,09,17,04,04,9.60
2018,09,17,04,05,9.50
2018,09,17,04,06,9.50
2018,09,17,04,07,9.50
2018,09,17,04,08,9.40
2018,09,17,04,09,9.40
2018,09,17,04,10,9.30
2018,09,17,04,11,9.30
2018,09,17,04,12,9.30
2018,09,17,04,13,9.20
2018,09,17,04,14,9.20
2018,09,17,04,15,9.20
2018,09,17,04,16,9.20
2018,09,17,04,17,9.20
2018,09,17,04,18,9.20
2018,09,17,04,19,9.10
2018,09,17,04,20,9.20
2018,09,17,04,21,9.20
2018,09,17,04,22,9.20
2018,09,17,04,23,9.20
2018,09,17,04,24,9.20
2018,09,17,04,25,9.20
2018,09,17,04,26,9.20
2018,09,17,04,27,9.20
2018,09,17,04,28,9.20
2018,09,17,04,29,9.20
2018,09,17,04,30,9.20
2018,09,17,04,31,9.20
2018,09,17,04,32,9.20
2018,09,17,04,33,9.20
2018,09,17,04,34,9.20
2018,09,17,04,35,9.10
2018,09,17,04,36,9.10
2018,09,17,04,37,9.10
2018,09,17,04,38,9.00
2018,09,17,04,39,9.00
2018,09,17,04,40,9.00
2018,09,17,04,41,9.00
2018,09,17,04,42,8.90
2018,09,17,04,43,8.90
2018,09,17,04,44,8.90
2018,09,17,04,45,8.80
2018,09,17,04,46,8.70
2018,09,17,04,47,8.60
2018,09,17,04,48,8.50
2018,09,17,04,49,8.50
2018,09,17,04,50,8.40
2018,09,17,04,51,8.30
2018,09,17,04,52,8.30
2018,09,17,04,53,8.30
2018,09,17,04,54,8.20
2018,09,17,04,55,8.20
2018,09,17,04,56,8.10
2018,09,17,04,57,8.10
2018,09,17,04,58,8.10
2018,09,17,04,59,8.00
2018,09,17,05,00,7.90
2018,09,17,05,01,7.90
2018,09,17,05,02,7.80
2018,09,17,05,03,7.80
2018,09,17,05,04,7.80
2018,09,17,05,05,7.70
2018,09,17,05,06,7.70
2018,09,17,05,07,7.70
2018,09,17,05,08,7.70
2018,09,17,05,09,7.70
2018,09,17,05,10,7.70
2018,09,17,05,11,7.70
2018,09,17,05,12,7.70
2018,09,17,05,13,7.70
2018,09,17,05,14,7.60
2018,09,17,05,15,7.60
2018,09,17,05,16,7.60
2018,09,17,05,17,7.60
2018,09,17,05,18,7.60
2018,09,17,05,19,7.50
2018,09,17,05,20,7.50
2018,09,17,05,21,7.50
2018,09,17,05,22,7.50
2018,09,17,05,23,7.50
2018,09,17,05,24,7.50
2018,09,17,05,25,7.40
2018,09,17,05,26,7.40
2018,09,17,05,27,7.40
2018,09,17,05,28,7.40
2018,09,17,05,29,7.30
2018,09,17,05,30,7.30
2018,09,17,05,31,7.30
2018,09,17,05,32,7.30
2018,09,17,05,33,7.30
2018,09,17,05,34,7.20
2018,09,17,05,35,7.20
2018,09,17,05,36,7.20
2018,09,17,05,37,7.20
2018,09,17,05,38,7.20
2018,09,17,05,39,7.20
2018,09,17,05,40,7.20
2018,09,17,05,41,7.20
2018,09,17,05,42,7.20
2018,09,17,05,43,7.20
2018,09,17,05,44,7.20
2018,09,17,05,45,7.20
2018,09,17,05,46,7.20
2018,09,17,05,47,7.20
2018,09,17,05,48,7.10
2018,09,17,05,49,7.10
2018,09,17,05,50,7.10
2018,09,17,05,51,7.10
2018,09,17,05,52,7.10
2018,09,17,05,53,7.10
2018,09,17,05,54,7.00
2018,09,17,05,55,7.00
2018,09,17,05,56,7.00
2018,09,17,05,57,7.00
2018,09,17,05,58,6.90
2018,09,17,05,59,6.90
2018,09,17,06,00,6.90
2018,09,17,06,01,6.90
2018,09,17,06,02,6.90
2018,09,17,06,03,6.80
2018,09,17,06,04,6.80
2018,09,17,06,05,6.80
2018,09,17,06,06,6.80
2018,09,17,06,07,6.80
2018,09,17,06,08,6.80
2018,09,17,06,09,6.80
2018,09,17,06,10,6.80
2018,09,17,06,11,6.70
2018,09,17,06,12,6.70
2018,09,17,06,13,6.70
2018,09,17,06,14,6.70
2018,09,17,06,15,6.60
2018,09,17,06,16,6.60
2018,09,17,06,17,6.60
2018,09,17,06,18,6.60
2018,09,17,06,19,6.60
2018,09,17,06,20,6.60
2018,09,17,06,21,6.60
2018,09,17,06,22,6.50
2018,09,17,06,23,6.50
2018,09,17,06,24,6.50
2018,09,17,06,25,6.50
2018,09,17,06,26,6.50
2018,09,17,06,27,6.50
2018,09,17,06,28,6.50
2018,09,17,06,29,6.40
2018,09,17,06,30,6.40
2018,09,17,06,31,6.40
2018,09,17,06,32,6.40
2018,09,17,06,33,6.40
2018,09,17,06,34,6.40
2018,09,17,06,35,6.40
2018,09,17,06,36,6.40
2018,09,17,06,37,6.40
2018,09,17,06,38,6.40
2018,09,17,06,39,6.40
2018,09,17,06,40,6.40
2018,09,17,06,41,6.40
2018,09,17,06,42,6.40
2018,09,17,06,43,6.40
2018,09,17,06,44,6.40
2018,09,17,06,45,6.30
2018,09,17,06,46,6.30
2018,09,17,06,47,6.30
2018,09,17,06,48,6.30
2018,09,17,06,49,6.30
2018,09,17,06,50,6.30
2018,09,17,06,51,6.20
2018,09,17,06,52,6.20
2018,09,17,06,53,6.20
2018,09,17,06,54,6.20
2018,09,17,06,55,6.20
2018,09,17,06,56,6.20
2018,09,17,06,57,6.20
2018,09,17,06,58,6.20
2018,09,17,06,59,6.20
2018,09,17,07,00,6.20
2018,09,17,07,01,6.20
2018,09,17,07,02,6.20
2018,09,17,07,03,6.20
2018,09,17,07,04,6.20
2018,09,17,07,05,6.20
2018,09,17,07,06,6.20
2018,09,17,07,07,6.20
2018,09,17,07,08,6.20
2018,09,17,07,09,6.10
2018,09,17,07,10,6.10
2018,09,17,07,11,6.10
2018,09,17,07,12,6.10
2018,09,17,07,13,6.10
2018,09,17,07,14,6.20
2018,09,17,07,15,6.20
2018,09,17,07,16,6.20
2018,09,17,07,17,6.20
2018,09,17,07,18,6.20
2018,09,17,07,19,6.20
2018,09,17,07,20,6.30
2018,09,17,07,21,6.30
2018,09,17,07,22,6.30
2018,09,17,07,23,6.30
2018,09,17,07,24,6.30
2018,09,17,07,25,6.30
2018,09,17,07,26,6.30
2018,09,17,07,27,6.30
2018,09,17,07,28,6.30
2018,09,17,07,29,6.30
2018,09,17,07,30,6.30
2018,09,17,07,31,6.30
2018,09,17,07,32,6.40
2018,09,17,07,33,6.50
2018,09,17,07,34,6.60
2018,09,17,07,35,6.60
2018,09,17,07,36,6.70
2018,09,17,07,37,6.80
2018,09,17,07,38,6.80
2018,09,17,07,39,6.80
2018,09,17,07,40,6.80
2018,09,17,07,41,6.80
2018,09,17,07,42,6.80
2018,09,17,07,43,6.90
2018,09,17,07,44,6.90
2018,09,17,07,45,6.90
2018,09,17,07,46,6.90
2018,09,17,07,47,7.00
2018,09,17,07,48,7.00
2018,09,17,07,49,7.00
2018,09,17,07,50,7.10
2018,09,17,07,51,7.10
2018,09,17,07,52,7.10
2018,09,17,07,53,7.10
2018,09,17,07,54,7.10
2018,09,17,07,55,7.20
2018,09,17,07,56,7.20
2018,09,17,07,57,7.20
2018,09,17,07,58,7.30
2018,09,17,07,59,7.30
2018,09,17,08,00,7.40
2018,09,17,08,01,7.50
2018,09,17,08,02,7.60
2018,09,17,08,03,7.70
2018,09,17,08,04,7.80
2018,09,17,08,05,7.80
2018,09,17,08,06,7.90
2018,09,17,08,07,7.90
2018,09,17,08,08,8.00
2018,09,17,08,09,8.10
2018,09,17,08,10,8.20
2018,09,17,08,11,8.30
2018,09,17,08,12,8.40
2018,09,17,08,13,8.40
2018,09,17,08,14,8.50
2018,09,17,08,15,8.50
2018,09,17,08,16,8.50
2018,09,17,08,17,8.60
2018,09,17,08,18,8.60
2018,09,17,08,19,8.70
2018,09,17,08,20,8.70
2018,09,17,08,21,8.80
2018,09,17,08,22,8.90
2018,09,17,08,23,8.90
2018,09,17,08,24,9.00
2018,09,17,08,25,9.10
2018,09,17,08,26,9.20
2018,09,17,08,27,9.20
2018,09,17,08,28,9.30
2018,09,17,08,29,9.40
2018,09,17,08,30,9.50
2018,09,17,08,31,9.60
2018,09,17,08,32,9.70
2018,09,17,08,33,9.80
2018,09,17,08,34,10.00
2018,09,17,08,35,10.10
2018,09,17,08,36,10.20
2018,09,17,08,37,10.30
2018,09,17,08,38,10.50
2018,09,17,08,39,10.60
2018,09,17,08,40,10.70
2018,09,17,08,41,10.70
2018,09,17,08,42,10.80
2018,09,17,08,43,10.90
2018,09,17,08,44,11.00
2018,09,17,08,45,11.00
2018,09,17,08,46,11.10
2018,09,17,08,47,11.20
2018,09,17,08,48,11.20
2018,09,17,08,49,11.30
2018,09,17,08,50,11.30
2018,09,17,08,51,11.40
2018,09,17,08,52,11.40
2018,09,17,08,53,11.40
2018,09,17,08,54,11.40
2018,09,17,08,55,11.40
2018,09,17,08,56,11.50
2018,09,17,08,57,11.60
2018,09,17,08,58,11.60
2018,09,17,08,59,11.50
2018,09,17,09,00,11.50
2018,09,17,09,01,11.40
2018,09,17,09,02,11.40
2018,09,17,09,03,11.40
2018,09,17,09,04,11.50
2018,09,17,09,05,11.50
2018,09,17,09,06,11.70
2018,09,17,09,07,11.80
2018,09,17,09,08,12.00
2018,09,17,09,09,12.10
2018,09,17,09,10,12.20
2018,09,17,09,11,12.30
2018,09,17,09,12,12.30
2018,09,17,09,13,12.40
2018,09,17,09,14,12.50
2018,09,17,09,15,12.60
2018,09,17,09,16,12.70
2018,09,17,09,17,12.80
2018,09,17,09,18,12.80
2018,09,17,09,19,12.80
2018,09,17,09,20,12.80
2018,09,17,09,21,12.80
2018,09,17,09,22,12.80
2018,09,17,09,23,12.80
2018,09,17,09,24,12.80
2018,09,17,09,25,12.90
2018,09,17,09,26,13.00
2018,09,17,09,27,13.00
2018,09,17,09,28,13.00
2018,09,17,09,29,13.10
2018,09,17,09,30,13.10
2018,09,17,09,31,13.20
2018,09,17,09,32,13.20
2018,09,17,09,33,13.30
2018,09,17,09,34,13.40
2018,09,17,09,35,13.40
2018,09,17,09,36,13.40
2018,09,17,09,37,13.40
2018,09,17,09,38,13.40
2018,09,17,09,39,13.40
2018,09,17,09,40,13.50
2018,09,17,09,41,13.60
2018,09,17,09,42,13.60
2018,09,17,09,43,13.70
2018,09,17,09,44,13.80
2018,09,17,09,45,13.80
2018,09,17,09,46,13.90
2018,09,17,09,47,14.00
2018,09,17,09,48,14.00
2018,09,17,09,49,14.10
2018,09,17,09,50,14.00
2018,09,17,09,51,13.90
2018,09,17,09,52,13.80
2018,09,17,09,53,13.70
2018,09,17,09,54,13.70
2018,09,17,09,55,13.80
2018,09,17,09,56,13.80
2018,09,17,09,57,13.80
2018,09,17,09,58,13.90
2018,09,17,09,59,13.90
2018,09,17,10,00,14.00
2018,09,17,10,01,14.10
2018,09,17,10,02,14.10
2018,09,17,10,03,14.20
2018,09,17,10,04,14.30
2018,09,17,10,05,14.40
2018,09,17,10,06,14.40
2018,09,17,10,07,14.40
2018,09,17,10,08,14.50
2018,09,17,10,09,14.60
2018,09,17,10,10,14.60
2018,09,17,10,11,14.50
2018,09,17,10,12,14.50
2018,09,17,10,13,14.40
2018,09,17,10,14,14.30
2018,09,17,10,15,14.20
2018,09,17,10,16,14.00
2018,09,17,10,17,13.80
2018,09,17,10,18,13.70
2018,09,17,10,19,13.60
2018,09,17,10,20,13.60
2018,09,17,10,21,13.60
2018,09,17,10,22,13.60
2018,09,17,10,23,13.70
2018,09,17,10,24,13.70
2018,09,17,10,25,13.70
2018,09,17,10,26,13.60
2018,09,17,10,27,13.70
2018,09,17,10,28,13.70
2018,09,17,10,29,13.80
2018,09,17,10,30,13.80
2018,09,17,10,31,13.80
2018,09,17,10,32,13.80
2018,09,17,10,33,13.80
2018,09,17,10,34,13.80
2018,09,17,10,35,13.70
2018,09,17,10,36,13.60
2018,09,17,10,37,13.60
2018,09,17,10,38,13.60
2018,09,17,10,39,13.60
2018,09,17,10,40,13.60
2018,09,17,10,41,13.60
2018,09,17,10,42,13.60
2018,09,17,10,43,13.60
2018,09,17,10,44,13.60
2018,09,17,10,45,13.70
2018,09,17,10,46,13.70
2018,09,17,10,47,13.90
2018,09,17,10,48,13.90
2018,09,17,10,49,14.00
2018,09,17,10,50,14.00
2018,09,17,10,51,14.00
2018,09,17,10,52,14.00
2018,09,17,10,53,14.00
2018,09,17,10,54,14.00
2018,09,17,10,55,14.00
2018,09,17,10,56,14.10
2018,09,17,10,57,14.20
2018,09,17,10,58,14.20
2018,09,17,10,59,14.30
2018,09,17,11,00,14.40
2018,09,17,11,01,14.40
2018,09,17,11,02,14.40
2018,09,17,11,03,14.40
2018,09,17,11,04,14.40
2018,09,17,11,05,14.50
2018,09,17,11,06,14.50
2018,09,17,11,07,14.50
2018,09,17,11,08,14.60
2018,09,17,11,09,14.60
2018,09,17,11,10,14.60
2018,09,17,11,11,14.60
2018,09,17,11,12,14.50
2018,09,17,11,13,14.40
2018,09,17,11,14,14.30
2018,09,17,11,15,14.30
2018,09,17,11,16,14.30
2018,09,17,11,17,14.30
2018,09,17,11,18,14.30
2018,09,17,11,19,14.30
2018,09,17,11,20,14.40
2018,09,17,11,21,14.50
2018,09,17,11,22,14.60
2018,09,17,11,23,14.60
2018,09,17,11,24,14.60
2018,09,17,11,25,14.60
2018,09,17,11,26,14.60
2018,09,17,11,27,14.70
2018,09,17,11,28,14.70
2018,09,17,11,29,14.70
2018,09,17,11,30,14.80
2018,09,17,11,31,14.80
2018,09,17,11,32,14.80
2018,09,17,11,33,14.90
2018,09,17,11,34,15.00
2018,09,17,11,35,15.10
2018,09,17,11,36,15.00
2018,09,17,11,37,15.00
2018,09,17,11,38,14.90
2018,09,17,11,39,14.80
2018,09,17,11,40,14.80
2018,09,17,11,41,14.80
2018,09,17,11,42,14.70
2018,09,17,11,43,14.70
2018,09,17,11,44,14.70
2018,09,17,11,45,14.70
2018,09,17,11,46,14.70
2018,09,17,11,47,14.70
2018,09,17,11,48,14.60
2018,09,17,11,49,14.60
2018,09,17,11,50,14.70
2018,09,17,11,51,14.80
2018,09,17,11,52,14.80
2018,09,17,11,53,14.80
2018,09,17,11,54,14.80
2018,09,17,11,55,14.80
2018,09,17,11,56,14.80
2018,09,17,11,57,14.80
2018,09,17,11,58,14.80
2018,09,17,11,59,14.80
2018,09,17,12,00,14.80
2018,09,17,12,01,14.80
2018,09,17,12,02,14.90
2018,09,17,12,03,15.00
2018,09,17,12,04,15.10
2018,09,17,12,05,15.10
2018,09,17,12,06,15.10
2018,09,17,12,07,15.00
2018,09,17,12,08,15.10
2018,09,17,12,09,15.10
2018,09,17,12,10,15.10
2018,09,17,12,11,15.20
2018,09,17,12,12,15.20
2018,09,17,12,13,15.20
2018,09,17,12,14,15.30
2018,09,17,12,15,15.30
2018,09,17,12,16,15.30
2018,09,17,12,17,15.40
2018,09,17,12,18,15.50
2018,09,17,12,19,15.50
2018,09,17,12,20,15.50
2018,09,17,12,21,15.40
2018,09,17,12,22,15.40
2018,09,17,12,23,15.30
2018,09,17,12,24,15.20
2018,09,17,12,25,15.20
2018,09,17,12,26,15.20
2018,09,17,12,27,15.20
2018,09,17,12,28,15.20
2018,09,17,12,29,15.20
2018,09,17,12,30,15.10
2018,09,17,12,31,15.10
2018,09,17,12,32,15.00
2018,09,17,12,33,15.10
2018,09,17,12,34,15.10
2018,09,17,12,35,15.10
2018,09,17,12,36,15.20
2018,09,17,12,37,15.20
2018,09,17,12,38,15.20
2018,09,17,12,39,15.20
2018,09,17,12,40,15.20
2018,09,17,12,41,15.10
2018,09,17,12,42,14.90
2018,09,17,12,43,14.80
2018,09,17,12,44,14.80
2018,09,17,12,45,14.70
2018,09,17,12,46,14.70
2018,09,17,12,47,14.60
2018,09,17,12,48,14.60
2018,09,17,12,49,14.70
2018,09,17,12,50,14.80
2018,09,17,12,51,15.00
2018,09,17,12,52,15.00
2018,09,17,12,53,15.10
2018,09,17,12,54,15.00
2018,09,17,12,55,14.90
2018,09,17,12,56,14.90
2018,09,17,12,57,14.90
2018,09,17,12,58,14.90
2018,09,17,12,59,14.80
2018,09,17,13,00,14.80
2018,09,17,13,01,14.90
2018,09,17,13,02,14.90
2018,09,17,13,03,14.90
2018,09,17,13,04,14.90
2018,09,17,13,05,14.80
2018,09,17,13,06,14.90
2018,09,17,13,07,14.90
2018,09,17,13,08,14.80
2018,09,17,13,09,14.80
2018,09,17,13,10,14.80
2018,09,17,13,11,14.70
2018,09,17,13,12,14.70
2018,09,17,13,13,14.70
2018,09,17,13,14,14.70
2018,09,17,13,15,14.70
2018,09,17,13,16,14.70
2018,09,17,13,17,14.70
2018,09,17,13,18,14.80
2018,09,17,13,19,14.80
2018,09,17,13,20,14.80
2018,09,17,13,21,14.90
2018,09,17,13,22,15.00
2018,09,17,13,23,15.10
2018,09,17,13,24,15.20
2018,09,17,13,25,15.30
2018,09,17,13,26,15.20
2018,09,17,13,27,15.20
2018,09,17,13,28,15.20
2018,09,17,13,29,15.00
2018,09,17,13,30,15.00
2018,09,17,13,31,15.00
2018,09,17,13,32,15.00
2018,09,17,13,33,15.10
2018,09,17,13,34,15.10
2018,09,17,13,35,15.10
2018,09,17,13,36,15.00
2018,09,17,13,37,15.00
2018,09,17,13,38,15.10
2018,09,17,13,39,15.20
2018,09,17,13,40,15.30
2018,09,17,13,41,15.30
2018,09,17,13,42,15.30
2018,09,17,13,43,15.30
2018,09,17,13,44,15.30
2018,09,17,13,45,15.30
2018,09,17,13,46,15.20
2018,09,17,13,47,15.20
2018,09,17,13,48,15.20
2018,09,17,13,49,15.20
2018,09,17,13,50,15.10
2018,09,17,13,51,15.10
2018,09,17,13,52,15.00
2018,09,17,13,53,15.00
2018,09,17,13,54,15.00
2018,09,17,13,55,15.00
2018,09,17,13,56,15.00
2018,09,17,13,57,14.90
2018,09,17,13,58,14.90
2018,09,17,13,59,15.00
2018,09,17,14,00,15.00
2018,09,17,14,01,15.00
2018,09,17,14,02,15.10
2018,09,17,14,03,15.20
2018,09,17,14,04,15.40
2018,09,17,14,05,15.60
2018,09,17,14,06,15.70
2018,09,17,14,07,15.90
2018,09,17,14,08,16.10
2018,09,17,14,09,16.20
2018,09,17,14,10,16.30
2018,09,17,14,11,16.30
2018,09,17,14,12,16.40
2018,09,17,14,13,16.40
2018,09,17,14,14,16.40
2018,09,17,14,15,16.50
2018,09,17,14,16,16.50
2018,09,17,14,17,16.50
2018,09,17,14,18,16.40
2018,09,17,14,19,16.30
2018,09,17,14,20,16.10
2018,09,17,14,21,15.90
2018,09,17,14,22,15.80
2018,09,17,14,23,15.70
2018,09,17,14,24,15.70
2018,09,17,14,25,15.60
2018,09,17,14,26,15.50
2018,09,17,14,27,15.40
2018,09,17,14,28,15.40
2018,09,17,14,29,15.30
2018,09,17,14,30,15.30
2018,09,17,14,31,15.30
2018,09,17,14,32,15.40
2018,09,17,14,33,15.40
2018,09,17,14,34,15.50
2018,09,17,14,35,15.60
2018,09,17,14,36,15.60
2018,09,17,14,37,15.70
2018,09,17,14,38,15.80
2018,09,17,14,39,15.90
2018,09,17,14,40,16.00
2018,09,17,14,41,16.20
2018,09,17,14,42,16.20
2018,09,17,14,43,16.20
2018,09,17,14,44,16.10
2018,09,17,14,45,16.00
2018,09,17,14,46,15.90
2018,09,17,14,47,15.80
2018,09,17,14,48,15.80
2018,09,17,14,49,15.80
2018,09,17,14,50,15.80
2018,09,17,14,51,15.80
2018,09,17,14,52,15.80
2018,09,17,14,53,15.80
2018,09,17,14,54,15.80
2018,09,17,14,55,15.90
2018,09,17,14,56,15.90
2018,09,17,14,57,16.00
2018,09,17,14,58,16.00
2018,09,17,14,59,16.00
2018,09,17,15,00,16.10
2018,09,17,15,01,16.10
2018,09,17,15,02,16.10
2018,09,17,15,03,16.20
2018,09,17,15,04,16.20
2018,09,17,15,05,16.30
2018,09,17,15,06,16.30
2018,09,17,15,07,16.30
2018,09,17,15,08,16.20
2018,09,17,15,09,16.20
2018,09,17,15,10,16.20
2018,09,17,15,11,16.20
2018,09,17,15,12,16.20
2018,09,17,15,13,16.20
2018,09,17,15,14,16.20
2018,09,17,15,15,16.20
2018,09,17,15,16,16.20
2018,09,17,15,17,16.20
2018,09,17,15,18,16.20
2018,09,17,15,19,16.10
2018,09,17,15,20,16.10
2018,09,17,15,21,16.10
2018,09,17,15,22,16.20
2018,09,17,15,23,16.20
2018,09,17,15,24,16.30
2018,09,17,15,25,16.30
2018,09,17,15,26,16.20
2018,09,17,15,27,16.20
2018,09,17,15,28,16.20
2018,09,17,15,29,16.20
2018,09,17,15,30,16.20
2018,09,17,15,31,16.30
2018,09,17,15,32,16.30
2018,09,17,15,33,16.40
2018,09,17,15,34,16.40
2018,09,17,15,35,16.40
2018,09,17,15,36,16.40
2018,09,17,15,37,16.40
2018,09,17,15,38,16.40
2018,09,17,15,39,16.50
2018,09,17,15,40,16.50
2018,09,17,15,41,16.50
2018,09,17,15,42,16.60
2018,09,17,15,43,16.70
2018,09,17,15,44,16.70
2018,09,17,15,45,16.80
2018,09,17,15,46,16.90
2018,09,17,15,47,16.90
2018,09,17,15,48,17.00
2018,09,17,15,49,17.00
2018,09,17,15,50,17.00
2018,09,17,15,51,16.90
2018,09,17,15,52,16.80
2018,09,17,15,53,16.80
2018,09,17,15,54,16.80
2018,09,17,15,55,16.80
2018,09,17,15,56,16.90
2018,09,17,15,57,16.90
2018,09,17,15,58,16.90
2018,09,17,15,59,16.90
2018,09,17,16,00,16.80
2018,09,17,16,01,16.80
2018,09,17,16,02,16.80
2018,09,17,16,03,16.80
2018,09,17,16,04,16.80
2018,09,17,16,05,16.80
2018,09,17,16,06,16.70
2018,09,17,16,07,16.60
2018,09,17,16,08,16.50
2018,09,17,16,09,16.50
2018,09,17,16,10,16.50
2018,09,17,16,11,16.50
2018,09,17,16,12,16.50
2018,09,17,16,13,16.40
2018,09,17,16,14,16.40
2018,09,17,16,15,16.40
2018,09,17,16,16,16.50
2018,09,17,16,17,16.60
2018,09,17,16,18,16.70
2018,09,17,16,19,16.80
2018,09,17,16,20,16.90
2018,09,17,16,21,16.90
2018,09,17,16,22,17.00
2018,09,17,16,23,16.90
2018,09,17,16,24,16.80
2018,09,17,16,25,16.60
2018,09,17,16,26,16.50
2018,09,17,16,27,16.40
2018,09,17,16,28,16.30
2018,09,17,16,29,16.30
2018,09,17,16,30,16.30
2018,09,17,16,31,16.30
2018,09,17,16,32,16.40
2018,09,17,16,33,16.50
2018,09,17,16,34,16.60
2018,09,17,16,35,16.60
2018,09,17,16,36,16.60
2018,09,17,16,37,16.70
2018,09,17,16,38,16.70
2018,09,17,16,39,16.70
2018,09,17,16,40,16.80
2018,09,17,16,41,16.80
2018,09,17,16,42,16.90
2018,09,17,16,43,16.90
2018,09,17,16,44,16.90
2018,09,17,16,45,16.90
2018,09,17,16,46,17.00
2018,09,17,16,47,17.00
2018,09,17,16,48,17.00
2018,09,17,16,49,17.00
2018,09,17,16,50,17.00
2018,09,17,16,51,16.90
2018,09,17,16,52,16.90
2018,09,17,16,53,16.90
2018,09,17,16,54,16.80
2018,09,17,16,55,16.80
2018,09,17,16,56,16.80
2018,09,17,16,57,16.80
2018,09,17,16,58,16.80
2018,09,17,16,59,16.80
2018,09,17,17,00,16.80
2018,09,17,17,01,16.80
2018,09,17,17,02,16.90
2018,09,17,17,03,16.80
2018,09,17,17,04,16.80
2018,09,17,17,05,16.80
2018,09,17,17,06,16.70
2018,09,17,17,07,16.60
2018,09,17,17,08,16.60
2018,09,17,17,09,16.60
2018,09,17,17,10,16.60
2018,09,17,17,11,16.60
2018,09,17,17,12,16.70
2018,09,17,17,13,16.70
2018,09,17,17,14,16.70
2018,09,17,17,15,16.80
2018,09,17,17,16,16.80
2018,09,17,17,17,16.90
2018,09,17,17,18,16.90
2018,09,17,17,19,16.90
2018,09,17,17,20,16.90
2018,09,17,17,21,16.90
2018,09,17,17,22,16.90
2018,09,17,17,23,16.80
2018,09,17,17,24,16.80
2018,09,17,17,25,16.70
2018,09,17,17,26,16.70
2018,09,17,17,27,16.70
2018,09,17,17,28,16.60
2018,09,17,17,29,16.60
2018,09,17,17,30,16.50
2018,09,17,17,31,16.40
2018,09,17,17,32,16.30
2018,09,17,17,33,16.20